Previsão horária em Kabare

Hoje, 18 Junho, Sexta-feira

Tempo Temperatura Precipitação Vento Pressão Humidade
00:00 +18°C° 0.2 mm 1 m/s 625 mmHg 91%
01:00 +18°C° 0.2 mm 1 m/s 625 mmHg 91%
02:00 +18°C° 0 mm 1 m/s 625 mmHg 90%
03:00 +16°C° 0.2 mm 1 m/s 625 mmHg 91%
04:00 +16°C° 0.2 mm 1 m/s 625 mmHg 92%
05:00 +16°C° 0.2 mm 1 m/s 625 mmHg 92%
06:00 +18°C° 0.1 mm 1 m/s 625 mmHg 90%
07:00 +18°C° 0.1 mm 1 m/s 626 mmHg 87%
08:00 +17°C° 0 mm 0 m/s 626 mmHg 84%
09:00 +21°C° 0.5 mm 1 m/s 626 mmHg 79%
10:00 +22°C° 0.5 mm 1 m/s 627 mmHg 74%
11:00 +23°C° 0.5 mm 1 m/s 627 mmHg 69%
12:00 +22°C° 0.8 mm 1 m/s 626 mmHg 72%
13:00 +22°C° 0.8 mm 1 m/s 626 mmHg 76%
14:00 +21°C° 0.8 mm 1 m/s 625 mmHg 79%
15:00 +20°C° 0.4 mm 1 m/s 625 mmHg 83%
16:00 +19°C° 0.4 mm 1 m/s 625 mmHg 87%
17:00 +18°C° 0.4 mm 1 m/s 625 mmHg 91%
18:00 +18°C° 1 mm 1 m/s 625 mmHg 93%
19:00 +16°C° 1 mm 1 m/s 626 mmHg 94%
20:00 +16°C° 1 mm 1 m/s 626 mmHg 96%
21:00 +16°C° 0.4 mm 1 m/s 626 mmHg 95%
22:00 +16°C° 0.4 mm 1 m/s 626 mmHg 94%
23:00 +15°C° 0.4 mm 0 m/s 626 mmHg 94%

Amanhã, 19 Junho, Sábado

Tempo Temperatura Precipitação Vento Pressão Humidade
00:00 +15°C° 0 mm 0 m/s 626 mmHg 93%
01:00 +15°C° 0 mm 0 m/s 625 mmHg 93%
02:00 +15°C° 0 mm 1 m/s 625 mmHg 92%
03:00 +15°C° 0 mm 1 m/s 625 mmHg 92%
04:00 +15°C° 0 mm 1 m/s 625 mmHg 92%
05:00 +15°C° 0 mm 1 m/s 625 mmHg 92%
06:00 +16°C° 0.1 mm 1 m/s 625 mmHg 91%
07:00 +16°C° 0.1 mm 1 m/s 626 mmHg 91%
08:00 +18°C° 0.1 mm 1 m/s 626 mmHg 90%
09:00 +19°C° 0.1 mm 1 m/s 626 mmHg 86%
10:00 +19°C° 0.1 mm 1 m/s 626 mmHg 83%
11:00 +20°C° 0.1 mm 1 m/s 626 mmHg 79%
12:00 +21°C° 0 mm 1 m/s 626 mmHg 72%
13:00 +22°C° 0 mm 1 m/s 626 mmHg 65%
14:00 +24°C° 0 mm 1 m/s 626 mmHg 58%
15:00 +23°C° 0.1 mm 1 m/s 626 mmHg 63%
16:00 +22°C° 0.1 mm 1 m/s 625 mmHg 68%
17:00 +22°C° 0.1 mm 1 m/s 625 mmHg 73%
18:00 +20°C° 0.1 mm 1 m/s 625 mmHg 79%
19:00 +19°C° 0.1 mm 1 m/s 625 mmHg 84%
20:00 +16°C° 0.1 mm 1 m/s 625 mmHg 89%
21:00 +16°C° 0.1 mm 1 m/s 625 mmHg 89%
22:00 +15°C° 0.1 mm 1 m/s 625 mmHg 89%
23:00 +15°C° 0.1 mm 1 m/s 625 mmHg 89%

Depois de amanhã, 20 Junho, Domingo

Tempo Temperatura Precipitação Vento Pressão Humidade
00:00 +15°C° 0 mm 1 m/s 625 mmHg 88%
01:00 +16°C° 0 mm 1 m/s 625 mmHg 88%
02:00 +16°C° 0 mm 1 m/s 624 mmHg 87%
03:00 +15°C° 0 mm 1 m/s 624 mmHg 88%
04:00 +15°C° 0 mm 1 m/s 624 mmHg 89%
05:00 +15°C° 0 mm 1 m/s 624 mmHg 89%
06:00 +16°C° 0 mm 1 m/s 625 mmHg 86%
07:00 +18°C° 0 mm 1 m/s 626 mmHg 82%
08:00 +20°C° 0 mm 1 m/s 626 mmHg 78%
09:00 +20°C° 0.3 mm 1 m/s 627 mmHg 75%
10:00 +21°C° 0.3 mm 1 m/s 627 mmHg 73%
11:00 +21°C° 0.3 mm 2 m/s 627 mmHg 71%
12:00 +23°C° 0 mm 2 m/s 626 mmHg 66%
13:00 +23°C° 0 mm 2 m/s 626 mmHg 61%
14:00 +24°C° 0 mm 2 m/s 626 mmHg 56%
15:00 +23°C° 0.2 mm 2 m/s 625 mmHg 64%
16:00 +21°C° 0.2 mm 2 m/s 625 mmHg 71%
17:00 +19°C° 0.2 mm 2 m/s 625 mmHg 78%
18:00 +19°C° 0.1 mm 1 m/s 625 mmHg 81%
19:00 +18°C° 0.1 mm 1 m/s 625 mmHg 84%
20:00 +15°C° 0.1 mm 0 m/s 625 mmHg 87%
21:00 +15°C° 0 mm 0 m/s 625 mmHg 87%
22:00 +16°C° 0 mm 1 m/s 625 mmHg 86%
23:00 +15°C° 0 mm 1 m/s 625 mmHg 86%

21 Junho, Segunda-feira

Tempo Temperatura Precipitação Vento Pressão Humidade
00:00 +15°C° 0 mm 1 m/s 624 mmHg 85%
01:00 +15°C° 0 mm 1 m/s 624 mmHg 84%
02:00 +15°C° 0 mm 1 m/s 624 mmHg 83%
03:00 +16°C° 0 mm 1 m/s 624 mmHg 82%
04:00 +16°C° 0 mm 1 m/s 624 mmHg 81%
05:00 +15°C° 0 mm 0 m/s 624 mmHg 79%
06:00 +16°C° 0 mm 1 m/s 625 mmHg 79%
07:00 +18°C° 0 mm 1 m/s 625 mmHg 79%
08:00 +18°C° 0 mm 1 m/s 625 mmHg 78%
09:00 +19°C° 0 mm 1 m/s 626 mmHg 76%
10:00 +19°C° 0 mm 1 m/s 626 mmHg 74%
11:00 +20°C° 0 mm 1 m/s 626 mmHg 72%
12:00 +21°C° 0 mm 1 m/s 626 mmHg 68%
13:00 +21°C° 0 mm 1 m/s 625 mmHg 63%
14:00 +22°C° 0 mm 1 m/s 625 mmHg 59%
15:00 +22°C° 0 mm 1 m/s 625 mmHg 62%
16:00 +22°C° 0 mm 1 m/s 625 mmHg 65%
17:00 +21°C° 0 mm 1 m/s 625 mmHg 69%
18:00 +20°C° 0 mm 1 m/s 624 mmHg 73%
19:00 +19°C° 0 mm 1 m/s 624 mmHg 77%
20:00 +16°C° 0 mm 1 m/s 624 mmHg 81%
21:00 +16°C° 0 mm 1 m/s 624 mmHg 80%
22:00 +16°C° 0 mm 1 m/s 624 mmHg 80%
23:00 +16°C° 0 mm 1 m/s 624 mmHg 79%

22 Junho, Terça-feira

Tempo Temperatura Precipitação Vento Pressão Humidade
00:00 +16°C° 0 mm 1 m/s 624 mmHg 80%
01:00 +15°C° 0 mm 1 m/s 624 mmHg 80%
02:00 +15°C° 0 mm 1 m/s 623 mmHg 81%
03:00 +15°C° 0 mm 1 m/s 623 mmHg 81%
04:00 +15°C° 0 mm 1 m/s 623 mmHg 81%
05:00 +15°C° 0 mm 1 m/s 623 mmHg 82%
06:00 +16°C° 0 mm 1 m/s 624 mmHg 78%
07:00 +18°C° 0 mm 1 m/s 625 mmHg 75%
08:00 +19°C° 0 mm 1 m/s 625 mmHg 71%
09:00 +21°C° 0 mm 1 m/s 625 mmHg 66%
10:00 +22°C° 0 mm 1 m/s 626 mmHg 60%
11:00 +23°C° 0 mm 1 m/s 626 mmHg 55%
12:00 +23°C° 0.2 mm 2 m/s 625 mmHg 57%
13:00 +23°C° 0.2 mm 2 m/s 625 mmHg 60%
14:00 +23°C° 0.2 mm 2 m/s 624 mmHg 62%
15:00 +21°C° 0.3 mm 2 m/s 624 mmHg 68%
16:00 +21°C° 0.3 mm 1 m/s 624 mmHg 74%
17:00 +20°C° 0.3 mm 1 m/s 624 mmHg 80%
18:00 +19°C° 0.1 mm 1 m/s 624 mmHg 82%
19:00 +18°C° 0.1 mm 1 m/s 624 mmHg 84%
20:00 +18°C° 0.1 mm 1 m/s 624 mmHg 86%
21:00 +16°C° 0 mm 1 m/s 624 mmHg 86%
22:00 +16°C° 0 mm 1 m/s 624 mmHg 87%
23:00 +14°C° 0 mm 0 m/s 624 mmHg 87%

23 Junho, Quarta-feira

Tempo Temperatura Precipitação Vento Pressão Humidade
00:00 +15°C° 0 mm 1 m/s 624 mmHg 87%
01:00 +15°C° 0 mm 1 m/s 624 mmHg 87%
02:00 +15°C° 0 mm 1 m/s 623 mmHg 86%
03:00 +15°C° 0 mm 1 m/s 623 mmHg 86%
04:00 +15°C° 0 mm 1 m/s 623 mmHg 86%
05:00 +15°C° 0 mm 1 m/s 624 mmHg 86%
06:00 +16°C° 0 mm 1 m/s 624 mmHg 83%
07:00 +18°C° 0 mm 1 m/s 625 mmHg 81%
08:00 +19°C° 0 mm 1 m/s 625 mmHg 78%
09:00 +19°C° 0 mm 1 m/s 626 mmHg 75%
10:00 +19°C° 0 mm 2 m/s 626 mmHg 72%
11:00 +20°C° 0 mm 2 m/s 626 mmHg 69%
12:00 +21°C° 0.2 mm 2 m/s 626 mmHg 65%
13:00 +23°C° 0.2 mm 2 m/s 625 mmHg 62%
14:00 +24°C° 0.2 mm 2 m/s 625 mmHg 58%
15:00 +23°C° 0.4 mm 2 m/s 625 mmHg 65%
16:00 +22°C° 0.4 mm 1 m/s 625 mmHg 72%
17:00 +20°C° 0.4 mm 1 m/s 624 mmHg 79%
18:00 +19°C° 0 mm 1 m/s 624 mmHg 82%
19:00 +18°C° 0 mm 1 m/s 624 mmHg 85%
20:00 +15°C° 0 mm 1 m/s 624 mmHg 88%
21:00 +15°C° 0 mm 1 m/s 624 mmHg 89%
22:00 +15°C° 0 mm 1 m/s 624 mmHg 89%
23:00 +15°C° 0 mm 1 m/s 624 mmHg 90%
Mostrar mais

Necessitamos do seu Consentimento

A Meteoprog e os seus Fornecedores de Serviços podem armazenar e aceder a dados pessoais como cookies, identificadores do dispositivo ou outras tecnologias semelhantes existentes no seu dispositivo e processar estes dados para personalizar conteúdos e anúncios, assim como funcionalidades nas redes sociais e análise de tráfego.

  • Armazenar e/ou aceder a informações no seu dispositivo

    Os cookies, identificadores do dispositivo ou outras informações podem ser armazenados ou acedidos no seu dispositivo, para os fins acima indicados.

  • Anúncios e conteúdos personalizados, medição de anúncios e conteúdos, dados sobre o público-alvo e desenvolvimento de produtos

    Os anúncios e os conteúdos podem ser personalizados com base num perfil. Podem ser adicionados dados adicionais para uma maior personalização dos anúncios e dos conteúdos. A eficácia dos anúncios e dos conteúdos pode ser medida. Podem ser obtidas informações sobre o público que visualizou os anúncios e os conteúdos. Estes dados podem ser usados para desenvolver ou melhorar sistemas, softwares ou a experiência do utilizador.

Ao clicar em "Eu concordo”, permitirá o uso de cookies, identificadores do dispositivo e web beacons mencionados ou outras tecnologias semelhantes. As configurações do navegador do seu dispositivo podem ser alteradas.

Para certos fins, podem ser invocados interesses legítimos ao invés de consentimento. Pode ler mais informação sobre este assunto na nossa Política de Privacidade e Cookies.